Terug naar catalogus

STARLINK-32625

ActiefCommunicatieVLEO
NORAD 62154·PAYLOAD·🇺🇸 United States

Gelanceerd Nov 30, 2024 vanaf Cape Canaveral Space Force Station

Loading…

Volgende Passages (komende 24 uur)

TLE

VersSource: CelesTrak SupGP

Epoch: Sep 15, 2026, 02:00 UTC

1 62154C 24224R   26258.08381944 -.00044243  00000+0 -16027-2 0  2586
2 62154  43.0005 168.8070 0001335 273.5096  23.5605 15.27595538    18

Volg STARLINK-32625 in realtime met AllMySat

Download on the App Store